When you browse on this site, cookies collect data to enhance your experience and personalize the content and advertising you see.
Visit our Privacy Policy to learn more. By continuing to use the site, you agree to this use of cookies and data.
  • In Hungary
  • List of Countries
  • For 7 days
  • Water Temperature
  • Satellite Maps
  • Weather Map
  • News
  • Weather Widgets
  • user-avatar
    Login

    Hourly Weather Dolneni

    Today, 17 February, Sunday

    Time Temperature Precipitation Wind Pressure Humidity
    00:00 +2°C° 0 mm 1 mps 711 mmHg 73%
    01:00 +1°C° 0 mm 1 mps 711 mmHg 73%
    02:00 +1°C° 0 mm 1 mps 711 mmHg 72%
    03:00 +1°C° 0 mm 1 mps 711 mmHg 71%
    04:00 +1°C° 0 mm 1 mps 711 mmHg 70%
    05:00 +2°C° 0 mm 1 mps 711 mmHg 68%
    06:00 +2°C° 0 mm 1 mps 711 mmHg 67%
    07:00 +2°C° 0 mm 1 mps 711 mmHg 66%
    08:00 +4°C° 0 mm 1 mps 711 mmHg 59%
    09:00 +6°C° 0 mm 1 mps 711 mmHg 53%
    10:00 +8°C° 0 mm 1 mps 711 mmHg 47%
    11:00 +9°C° 0 mm 1 mps 711 mmHg 45%
    12:00 +10°C° 0 mm 1 mps 710 mmHg 43%
    13:00 +11°C° 0 mm 1 mps 710 mmHg 41%
    14:00 +11°C° 0 mm 1 mps 710 mmHg 44%
    15:00 +11°C° 0 mm 1 mps 710 mmHg 47%
    16:00 +10°C° 0 mm 1 mps 710 mmHg 50%
    17:00 +8°C° 0 mm 0 mps 710 mmHg 54%
    18:00 +6°C° 0 mm 0 mps 709 mmHg 57%
    19:00 +5°C° 0 mm 0 mps 709 mmHg 61%
    20:00 +4°C° 0 mm 0 mps 709 mmHg 62%
    21:00 +5°C° 0 mm 1 mps 709 mmHg 64%
    22:00 +4°C° 0 mm 1 mps 710 mmHg 65%
    23:00 +4°C° 0 mm 1 mps 710 mmHg 65%

    Tomorrow, 18 February, Monday

    Time Temperature Precipitation Wind Pressure Humidity
    00:00 +4°C° 0 mm 1 mps 709 mmHg 65%
    01:00 +4°C° 0 mm 1 mps 709 mmHg 65%
    02:00 +4°C° 0 mm 1 mps 709 mmHg 65%
    03:00 +4°C° 0 mm 1 mps 709 mmHg 64%
    04:00 +3°C° 0 mm 1 mps 709 mmHg 64%
    05:00 +3°C° 0 mm 0 mps 709 mmHg 63%
    06:00 +3°C° 0 mm 0 mps 709 mmHg 62%
    07:00 +3°C° 0 mm 0 mps 709 mmHg 61%
    08:00 +5°C° 0 mm 0 mps 709 mmHg 56%
    09:00 +7°C° 0 mm 0 mps 709 mmHg 50%
    10:00 +9°C° 0 mm 0 mps 709 mmHg 45%
    11:00 +10°C° 0 mm 0 mps 709 mmHg 42%
    12:00 +11°C° 0 mm 0 mps 709 mmHg 40%
    13:00 +12°C° 0 mm 0 mps 709 mmHg 37%
    14:00 +13°C° 0 mm 1 mps 709 mmHg 39%
    15:00 +13°C° 0 mm 1 mps 708 mmHg 41%
    16:00 +13°C° 0 mm 1 mps 708 mmHg 42%
    17:00 +10°C° 0 mm 0 mps 708 mmHg 46%
    18:00 +8°C° 0 mm 0 mps 708 mmHg 50%
    19:00 +7°C° 0 mm 0 mps 708 mmHg 54%
    20:00 +6°C° 0 mm 0 mps 708 mmHg 55%
    21:00 +6°C° 0 mm 0 mps 708 mmHg 57%
    22:00 +5°C° 0 mm 0 mps 708 mmHg 59%
    23:00 +5°C° 0 mm 0 mps 708 mmHg 60%

    Day after tomorrow, 19 February, Tuesday

    Time Temperature Precipitation Wind Pressure Humidity
    00:00 +4°C° 0 mm 0 mps 708 mmHg 61%
    01:00 +4°C° 0 mm 0 mps 708 mmHg 63%
    02:00 +5°C° 0 mm 1 mps 708 mmHg 63%
    03:00 +5°C° 0 mm 1 mps 708 mmHg 64%
    04:00 +4°C° 0 mm 1 mps 708 mmHg 65%
    05:00 +4°C° 0 mm 1 mps 708 mmHg 65%
    06:00 +3°C° 0 mm 0 mps 708 mmHg 66%
    07:00 +3°C° 0 mm 0 mps 708 mmHg 66%
    08:00 +6°C° 0 mm 1 mps 708 mmHg 60%
    09:00 +9°C° 0 mm 1 mps 709 mmHg 54%
    10:00 +11°C° 0 mm 1 mps 709 mmHg 48%
    11:00 +12°C° 0 mm 1 mps 709 mmHg 45%
    12:00 +13°C° 0 mm 1 mps 709 mmHg 42%
    13:00 +14°C° 0 mm 1 mps 708 mmHg 40%
    14:00 +14°C° 0 mm 1 mps 708 mmHg 40%
    15:00 +13°C° 0 mm 1 mps 708 mmHg 40%
    16:00 +13°C° 0 mm 1 mps 708 mmHg 41%
    17:00 +12°C° 0 mm 1 mps 708 mmHg 46%
    18:00 +9°C° 0 mm 0 mps 708 mmHg 51%
    19:00 +7°C° 0 mm 0 mps 708 mmHg 57%
    20:00 +8°C° 0 mm 1 mps 708 mmHg 59%
    21:00 +7°C° 0 mm 1 mps 708 mmHg 62%
    22:00 +6°C° 0 mm 1 mps 708 mmHg 64%
    23:00 +6°C° 0 mm 1 mps 708 mmHg 66%

    20 February, Wednesday

    Time Temperature Precipitation Wind Pressure Humidity
    00:00 +6°C° 0 mm 1 mps 708 mmHg 68%
    01:00 +5°C° 0 mm 1 mps 708 mmHg 69%
    02:00 +5°C° 0 mm 1 mps 708 mmHg 71%
    03:00 +4°C° 0 mm 1 mps 707 mmHg 72%
    04:00 +4°C° 0 mm 1 mps 707 mmHg 73%
    05:00 +4°C° 0 mm 1 mps 707 mmHg 72%
    06:00 +4°C° 0 mm 1 mps 708 mmHg 72%
    07:00 +4°C° 0 mm 1 mps 708 mmHg 71%
    08:00 +6°C° 0 mm 1 mps 708 mmHg 64%
    09:00 +7°C° 0 mm 0 mps 708 mmHg 56%
    10:00 +9°C° 0 mm 0 mps 709 mmHg 49%
    11:00 +11°C° 0 mm 1 mps 709 mmHg 45%
    12:00 +12°C° 0 mm 1 mps 709 mmHg 41%
    13:00 +13°C° 0 mm 1 mps 708 mmHg 37%
    14:00 +13°C° 0 mm 1 mps 708 mmHg 38%
    15:00 +13°C° 0 mm 1 mps 708 mmHg 38%
    16:00 +13°C° 0 mm 2 mps 708 mmHg 39%
    17:00 +11°C° 0 mm 1 mps 708 mmHg 45%
    18:00 +9°C° 0 mm 1 mps 709 mmHg 51%
    19:00 +8°C° 0 mm 1 mps 709 mmHg 57%
    20:00 +7°C° 0 mm 1 mps 709 mmHg 60%
    21:00 +7°C° 0 mm 1 mps 709 mmHg 63%
    22:00 +6°C° 0 mm 1 mps 710 mmHg 66%
    23:00 +6°C° 0 mm 1 mps 710 mmHg 68%

    21 February, Thursday

    Time Temperature Precipitation Wind Pressure Humidity
    00:00 +5°C° 0 mm 1 mps 710 mmHg 71%
    01:00 +5°C° 0 mm 1 mps 710 mmHg 73%
    02:00 +5°C° 0 mm 1 mps 710 mmHg 75%
    03:00 +4°C° 0 mm 1 mps 710 mmHg 76%
    04:00 +4°C° 0 mm 1 mps 710 mmHg 78%
    05:00 +4°C° 0 mm 1 mps 710 mmHg 79%
    06:00 +4°C° 0 mm 1 mps 710 mmHg 80%
    07:00 +4°C° 0 mm 1 mps 710 mmHg 81%
    08:00 +6°C° 0 mm 1 mps 710 mmHg 72%
    09:00 +7°C° 0 mm 2 mps 711 mmHg 64%
    10:00 +8°C° 0 mm 2 mps 711 mmHg 56%
    11:00 +9°C° 0 mm 2 mps 711 mmHg 52%
    12:00 +10°C° 0 mm 2 mps 710 mmHg 48%
    13:00 +12°C° 0 mm 2 mps 710 mmHg 45%
    14:00 +12°C° 0 mm 2 mps 710 mmHg 46%
    15:00 +10°C° 0 mm 2 mps 710 mmHg 47%
    16:00 +10°C° 0 mm 2 mps 710 mmHg 47%
    17:00 +10°C° 0 mm 1 mps 710 mmHg 54%
    18:00 +8°C° 0 mm 1 mps 710 mmHg 60%
    19:00 +6°C° 0 mm 0 mps 710 mmHg 66%
    20:00 +5°C° 0 mm 0 mps 710 mmHg 69%
    21:00 +5°C° 0 mm 0 mps 711 mmHg 71%
    22:00 +4°C° 0 mm 0 mps 711 mmHg 74%
    23:00 +4°C° 0 mm 0 mps 710 mmHg 76%

    22 February, Friday

    Time Temperature Precipitation Wind Pressure Humidity
    00:00 +4°C° 0 mm 0 mps 710 mmHg 78%
    01:00 +3°C° 0 mm 0 mps 710 mmHg 80%
    02:00 +3°C° 0 mm 0 mps 710 mmHg 81%
    03:00 +3°C° 0 mm 0 mps 710 mmHg 82%
    04:00 +3°C° 0 mm 0 mps 709 mmHg 83%
    05:00 +3°C° 0 mm 0 mps 709 mmHg 83%
    06:00 +3°C° 0 mm 0 mps 709 mmHg 84%
    07:00 +3°C° 0 mm 0 mps 709 mmHg 84%
    08:00 +6°C° 0 mm 1 mps 709 mmHg 77%
    09:00 +7°C° 0 mm 1 mps 709 mmHg 71%
    10:00 +9°C° 0 mm 1 mps 709 mmHg 64%
    11:00 +10°C° 0 mm 1 mps 708 mmHg 61%
    12:00 +10°C° 0 mm 1 mps 707 mmHg 59%
    13:00 +10°C° 0 mm 2 mps 707 mmHg 56%
    14:00 +9°C° 0.2 mm 2 mps 706 mmHg 59%
    15:00 +9°C° 0.2 mm 2 mps 706 mmHg 61%
    16:00 +8°C° 0.2 mm 2 mps 706 mmHg 63%
    17:00 +9°C° 0.2 mm 1 mps 706 mmHg 68%
    18:00 +8°C° 0.2 mm 1 mps 706 mmHg 73%
    19:00 +6°C° 0.2 mm 0 mps 706 mmHg 77%
    20:00 +6°C° 0.1 mm 0 mps 705 mmHg 79%
    21:00 +5°C° 0.1 mm 0 mps 705 mmHg 81%
    22:00 +6°C° 0.1 mm 1 mps 705 mmHg 82%
    23:00 +6°C° 0.3 mm 1 mps 705 mmHg 84%
    Show more